,,,PA_Meas_PMT16A,,PR_Meas_QMR101_102,,RH_Meas_QMH101,,SR_Meas_QMS101,,TA_Meas_QMH101,,GenWind,,GenWind,
date,time,status,PA,status,PR,status,RH,status,SR,status,TA,status,DirAvg,status,SpdAvg,
2010-01-19, 00:00:04,VALID,1002.35,VALID,0,VALID,81.9421,VALID,0,VALID,26.3756,VALID,89,VALID,3.06094,
2010-01-19, 00:01:04,VALID,1002.37,VALID,0,VALID,81.8735,VALID,0,VALID,26.4341,VALID,51,VALID,2.54258,
2010-01-19, 00:02:04,VALID,1002.37,VALID,0,VALID,82.0032,VALID,0,VALID,26.4537,VALID,62,VALID,1.82422,
2010-01-19, 00:03:04,VALID,1002.35,VALID,0,VALID,81.2783,VALID,0,VALID,26.4146,VALID,71,VALID,2.83555,
2010-01-19, 00:04:04,VALID,1002.35,VALID,0,VALID,81.4004,VALID,0,VALID,26.4341,VALID,54,VALID,1.50625,
2010-01-19, 00:05:04,VALID,1002.34,VALID,0,VALID,82.232,VALID,0,VALID,26.4341,VALID,20,VALID,1.27656,
2010-01-19, 00:06:04,VALID,1002.34,VALID,0,VALID,83.1095,VALID,0,VALID,26.3365,VALID,303,VALID,0.910937,
2010-01-19, 00:07:04,VALID,1002.31,VALID,0,VALID,83.758,VALID,0,VALID,26.1998,VALID,315,VALID,0.929688,
2010-01-19, 00:08:04,VALID,1002.32,VALID,0,VALID,84.4599,VALID,0,VALID,26.0631,VALID,304,VALID,0.45625,
2010-01-19, 00:09:04,VALID,1002.3,VALID,0,VALID,85.055,VALID,0,VALID,25.946,VALID,291,VALID,0.466016,
2010-01-19, 00:10:04,VALID,1002.31,VALID,0,VALID,85.406,VALID,0,VALID,25.8483,VALID,225,VALID,0.788281,
2010-01-19, 00:11:04,VALID,1002.33,VALID,0,VALID,85.5586,VALID,0,VALID,25.7702,VALID,234,VALID,0.105859,
2010-01-19, 00:12:04,VALID,1002.3,VALID,0,VALID,85.94,VALID,0,VALID,25.7312,VALID,234,VALID,0.0875,
2010-01-19, 00:13:04,VALID,1002.3,VALID,0,VALID,86.0697,VALID,0,VALID,25.6921,VALID,226,VALID,0.178125,
2010-01-19, 00:14:04,VALID,1002.26,VALID,0,VALID,86.0087,VALID,0,VALID,25.6531,VALID,236,VALID,0.424609,
2010-01-19, 00:15:04,VALID,1002.3,VALID,0,VALID,86.2529,VALID,0,VALID,25.6336,VALID,238,VALID,0,
2010-01-19, 00:16:04,VALID,1002.27,VALID,0,VALID,86.0926,VALID,0,VALID,25.6336,VALID,224,VALID,0,
2010-01-19, 00:17:04,VALID,1002.26,VALID,0,VALID,86.2223,VALID,0,VALID,25.5945,VALID,224,VALID,0,
2010-01-19, 00:18:04,VALID,1002.22,VALID,0,VALID,86.3215,VALID,0,VALID,25.5945,VALID,224,VALID,0,
2010-01-19, 00:19:04,VALID,1002.17,VALID,0,VALID,86.352,VALID,0,VALID,25.575,VALID,224,VALID,0.0539063,
2010-01-19, 00:20:04,VALID,1002.18,VALID,0,VALID,86.4054,VALID,0,VALID,25.5555,VALID,211,VALID,0.784766,
2010-01-19, 00:21:04,VALID,1002.16,VALID,0,VALID,86.3749,VALID,0,VALID,25.575,VALID,215,VALID,0.932813,
2010-01-19, 00:22:04,VALID,1002.12,VALID,0,VALID,86.2147,VALID,0,VALID,25.575,VALID,210,VALID,1.64414,
2010-01-19, 00:23:04,VALID,1002.11,VALID,0,VALID,85.8637,VALID,0,VALID,25.6531,VALID,213,VALID,1.38516,
2010-01-19, 00:24:04,VALID,1002.08,VALID,0,VALID,85.8332,VALID,0,VALID,25.6726,VALID,280,VALID,0.909375,
2010-01-19, 00:25:04,VALID,1002.06,VALID,0,VALID,86.0316,VALID,0,VALID,25.6531,VALID,332,VALID,1.23047,
2010-01-19, 00:26:04,VALID,1002.01,VALID,0,VALID,86.1384,VALID,0,VALID,25.5945,VALID,9,VALID,0.858203,
2010-01-19, 00:27:04,VALID,1001.98,VALID,0,VALID,86.146,VALID,0,VALID,25.5555,VALID,6,VALID,0.749219,
2010-01-19, 00:28:04,VALID,1001.98,VALID,0,VALID,86.2376,VALID,0,VALID,25.5359,VALID,23,VALID,0.700781,
2010-01-19, 00:29:04,VALID,1001.9,VALID,0,VALID,86.3292,VALID,0,VALID,25.4754,VALID,27,VALID,0.936328,
2010-01-19, 00:30:04,VALID,1001.88,VALID,0,VALID,86.4665,VALID,0,VALID,25.3993,VALID,20,VALID,1.42656,
2010-01-19, 00:31:04,VALID,1001.87,VALID,0,VALID,86.8174,VALID,0,VALID,25.3602,VALID,17,VALID,1.17656,
2010-01-19, 00:32:04,VALID,1001.81,VALID,0,VALID,86.1308,VALID,0,VALID,25.4169,VALID,87,VALID,0.702734,
2010-01-19, 00:33:04,VALID,1001.78,VALID,0,VALID,85.6654,VALID,0,VALID,25.5555,VALID,115,VALID,0.732031,
2010-01-19, 00:34:04,VALID,1001.8,VALID,0,VALID,85.0779,VALID,0,VALID,25.6726,VALID,360,VALID,1.00625,
2010-01-19, 00:35:04,VALID,1001.71,VALID,0,VALID,84.9711,VALID,0,VALID,25.7116,VALID,356,VALID,1.3582,
2010-01-19, 00:36:04,VALID,1001.72,VALID,0,VALID,84.9024,VALID,0,VALID,25.7702,VALID,39,VALID,1.44766,
2010-01-19, 00:37:04,VALID,1001.67,VALID,0,VALID,84.6125,VALID,0,VALID,25.7897,VALID,56,VALID,0.826172,
2010-01-19, 00:38:04,VALID,1001.64,VALID,0,VALID,84.5743,VALID,0,VALID,25.8093,VALID,59,VALID,0.746484,
2010-01-19, 00:39:04,VALID,1001.64,VALID,0,VALID,84.4523,VALID,0,VALID,25.8288,VALID,76,VALID,1.44727,
2010-01-19, 00:40:04,VALID,1001.63,VALID,0,VALID,84.5667,VALID,0,VALID,25.8874,VALID,25,VALID,0.708984,
2010-01-19, 00:41:04,VALID,1001.65,VALID,0,VALID,84.4065,VALID,0,VALID,25.8874,VALID,61,VALID,0.968359,
2010-01-19, 00:42:04,VALID,1001.61,VALID,0,VALID,84.3836,VALID,0,VALID,25.8659,VALID,92,VALID,0.583203,
2010-01-19, 00:43:04,VALID,1001.58,VALID,0,VALID,84.6049,VALID,0,VALID,25.8874,VALID,60,VALID,2.04961,
2010-01-19, 00:44:04,VALID,1001.56,VALID,0,VALID,84.437,VALID,0,VALID,25.9049,VALID,49,VALID,1.95508,
2010-01-19, 00:45:04,VALID,1001.55,VALID,0,VALID,84.5209,VALID,0,VALID,25.9635,VALID,62,VALID,2.05781,
2010-01-19, 00:46:04,VALID,1001.53,VALID,0,VALID,84.3912,VALID,0,VALID,26.0241,VALID,71,VALID,2.04219,
2010-01-19, 00:47:04,VALID,1001.56,VALID,0,VALID,84.3683,VALID,0,VALID,26.0631,VALID,58,VALID,2.0582,
2010-01-19, 00:48:04,VALID,1001.53,VALID,0,VALID,84.2463,VALID,0,VALID,26.0826,VALID,71,VALID,1.61875,
2010-01-19, 00:49:04,VALID,1001.46,VALID,0,VALID,84.3683,VALID,0,VALID,26.1022,VALID,43,VALID,1.1832,
2010-01-19, 00:50:04,VALID,1001.45,VALID,0,VALID,84.5438,VALID,0,VALID,26.0631,VALID,50,VALID,1.88477,
2010-01-19, 00:51:04,VALID,1001.44,VALID,0,VALID,84.7117,VALID,0,VALID,26.0631,VALID,49,VALID,1.02031,
2010-01-19, 00:52:04,VALID,1001.42,VALID,0,VALID,84.849,VALID,0,VALID,26.0221,VALID,43,VALID,1.63828,
2010-01-19, 00:53:04,VALID,1001.42,VALID,0,VALID,84.5362,VALID,0,VALID,26.0631,VALID,33,VALID,1.69141,
2010-01-19, 00:54:04,VALID,1001.44,VALID,0,VALID,84.582,VALID,0,VALID,26.0631,VALID,48,VALID,0.846875,
2010-01-19, 00:55:04,VALID,1001.44,VALID,0,VALID,84.7422,VALID,0,VALID,26.0631,VALID,59,VALID,0.975,
2010-01-19, 00:56:04,VALID,1001.44,VALID,0,VALID,84.7269,VALID,0,VALID,26.0436,VALID,53,VALID,0.719141,
2010-01-19, 00:57:04,VALID,1001.42,VALID,0,VALID,84.6964,VALID,0,VALID,26.0045,VALID,62,VALID,1.675,
2010-01-19, 00:58:04,VALID,1001.43,VALID,0,VALID,84.5743,VALID,0,VALID,26.0241,VALID,68,VALID,1.16445,
2010-01-19, 00:59:04,VALID,1001.43,VALID,0,VALID,84.498,VALID,0,VALID,26.0436,VALID,69,VALID,1.58438,
2010-01-19, 01:00:04,VALID,1001.4,VALID,0,VALID,84.4446,VALID,0,VALID,26.0631,VALID,76,VALID,1.08359,
2010-01-19, 01:01:04,VALID,1001.41,VALID,0,VALID,84.4217,VALID,0,VALID,26.0221,VALID,79,VALID,1.30586,
2010-01-19, 01:02:04,VALID,1001.4,VALID,0,VALID,84.4904,VALID,0,VALID,26.0241,VALID,71,VALID,0.876953,
2010-01-19, 01:03:04,VALID,1001.42,VALID,0,VALID,84.6201,VALID,0,VALID,26.0026,VALID,63,VALID,2.00234,
2010-01-19, 01:04:04,VALID,1001.41,VALID,0,VALID,84.5667,VALID,0,VALID,26.0631,VALID,56,VALID,1.45273,
2010-01-19, 01:05:04,VALID,1001.4,VALID,0,VALID,84.5133,VALID,0,VALID,26.0826,VALID,64,VALID,1.45977,
2010-01-19, 01:06:04,VALID,1001.4,VALID,0,VALID,84.6125,VALID,0,VALID,26.0611,VALID,55,VALID,1.18672,
2010-01-19, 01:07:04,VALID,1001.4,VALID,0,VALID,84.4065,VALID,0,VALID,26.0611,VALID,48,VALID,2.47148,
2010-01-19, 01:08:04,VALID,1001.42,VALID,0,VALID,84.3836,VALID,0,VALID,26.0826,VALID,49,VALID,1.73984,
2010-01-19, 01:09:04,VALID,1001.41,VALID,0,VALID,84.3531,VALID,0,VALID,26.0826,VALID,53,VALID,1.76484,
2010-01-19, 01:10:04,VALID,1001.43,VALID,0,VALID,83.88,VALID,0,VALID,26.1022,VALID,53,VALID,3.09648,
2010-01-19, 01:11:04,VALID,1001.4,VALID,0,VALID,83.7809,VALID,0,VALID,26.1412,VALID,44,VALID,1.38164,
2010-01-19, 01:12:04,VALID,1001.42,VALID,0,VALID,83.5138,VALID,0,VALID,26.1607,VALID,43,VALID,1.75664,
2010-01-19, 01:13:04,VALID,1001.44,VALID,0,VALID,83.9182,VALID,0,VALID,26.1412,VALID,53,VALID,2.11797,
2010-01-19, 01:14:04,VALID,1001.44,VALID,0,VALID,83.9029,VALID,0,VALID,26.1412,VALID,57,VALID,1.44687,
2010-01-19, 01:15:04,VALID,1001.44,VALID,0,VALID,83.8495,VALID,0,VALID,26.1607,VALID,56,VALID,2.18438,
2010-01-19, 01:16:04,VALID,1001.43,VALID,0,VALID,84.0479,VALID,0,VALID,26.1803,VALID,61,VALID,1.17734,
2010-01-19, 01:17:04,VALID,1001.39,VALID,0,VALID,83.9716,VALID,0,VALID,26.1412,VALID,41,VALID,2.42227,
2010-01-19, 01:18:04,VALID,1001.42,VALID,0,VALID,84.1318,VALID,0,VALID,26.1803,VALID,69,VALID,1.33125,
2010-01-19, 01:19:04,VALID,1001.39,VALID,0,VALID,84.231,VALID,0,VALID,26.1412,VALID,52,VALID,1.19883,
2010-01-19, 01:20:04,VALID,1001.37,VALID,0,VALID,84.4217,VALID,0,VALID,26.1022,VALID,65,VALID,1.54375,
2010-01-19, 01:21:04,VALID,1001.31,VALID,0,VALID,84.6354,VALID,0,VALID,26.0436,VALID,64,VALID,1.73203,
2010-01-19, 01:22:04,VALID,1001.31,VALID,0,VALID,84.6506,VALID,0,VALID,26.0436,VALID,47,VALID,1.92109,
2010-01-19, 01:23:04,VALID,1001.31,VALID,0,VALID,84.7803,VALID,0,VALID,26.0221,VALID,52,VALID,1.88945,
2010-01-19, 01:24:04,VALID,1001.31,VALID,0,VALID,84.9253,VALID,0,VALID,26.0241,VALID,66,VALID,1.54922,
2010-01-19, 01:25:04,VALID,1001.32,VALID,0,VALID,85.0474,VALID,0,VALID,25.985,VALID,70,VALID,2.04961,
2010-01-19, 01:26:04,VALID,1001.27,VALID,0,VALID,84.8795,VALID,0,VALID,25.9655,VALID,59,VALID,1.88242,
2010-01-19, 01:27:04,VALID,1001.29,VALID,0,VALID,84.376,VALID,0,VALID,25.983,VALID,64,VALID,2.6832,
2010-01-19, 01:28:04,VALID,1001.29,VALID,0,VALID,84.4675,VALID,0,VALID,26.0631,VALID,63,VALID,2.01172,
2010-01-19, 01:29:04,VALID,1001.28,VALID,0,VALID,84.2997,VALID,0,VALID,26.0826,VALID,66,VALID,1.7625,
2010-01-19, 01:30:04,VALID,1001.27,VALID,0,VALID,84.3912,VALID,0,VALID,26.0631,VALID,96,VALID,0.99375,
2010-01-19, 01:31:04,VALID,1001.28,VALID,0,VALID,84.4217,VALID,0,VALID,26.0416,VALID,82,VALID,0.901953,
2010-01-19, 01:32:04,VALID,1001.26,VALID,0,VALID,84.3073,VALID,0,VALID,26.0436,VALID,75,VALID,0.667188,
2010-01-19, 01:33:04,VALID,1001.26,VALID,0,VALID,84.4294,VALID,0,VALID,26.0045,VALID,93,VALID,0.519922,
2010-01-19, 01:34:04,VALID,1001.26,VALID,0,VALID,84.7803,VALID,0,VALID,25.946,VALID,103,VALID,0.630859,
2010-01-19, 01:35:04,VALID,1001.25,VALID,0,VALID,84.6812,VALID,0,VALID,25.8854,VALID,89,VALID,0.446094,
2010-01-19, 01:36:04,VALID,1001.23,VALID,0,VALID,84.7269,VALID,0,VALID,25.8874,VALID,51,VALID,0.605469,
2010-01-19, 01:37:04,VALID,1001.23,VALID,0,VALID,84.8261,VALID,0,VALID,25.8679,VALID,68,VALID,1.13008,
2010-01-19, 01:38:04,VALID,1001.21,VALID,0,VALID,84.643,VALID,0,VALID,25.8679,VALID,75,VALID,1.28555,
2010-01-19, 01:39:04,VALID,1001.17,VALID,0,VALID,84.5972,VALID,0,VALID,25.8874,VALID,67,VALID,1.16992,
2010-01-19, 01:40:04,VALID,1001.13,VALID,0,VALID,84.5667,VALID,0,VALID,25.8874,VALID,91,VALID,0.941797,
2010-01-19, 01:41:04,VALID,1001.07,VALID,0,VALID,84.4599,VALID,0,VALID,25.9069,VALID,91,VALID,0.559766,
2010-01-19, 01:42:04,VALID,1001.11,VALID,0,VALID,84.4904,VALID,0,VALID,25.9264,VALID,91,VALID,0.669922,
2010-01-19, 01:43:04,VALID,1001.08,VALID,0,VALID,84.5515,VALID,0,VALID,25.9069,VALID,91,VALID,0.870703,
2010-01-19, 01:44:04,VALID,1001.06,VALID,0,VALID,84.5972,VALID,0,VALID,25.8679,VALID,57,VALID,0.841016,
2010-01-19, 01:45:04,VALID,1001.1,VALID,0,VALID,84.5896,VALID,0,VALID,25.8679,VALID,66,VALID,0.679688,
2010-01-19, 01:46:04,VALID,1001.06,VALID,0,VALID,84.6354,VALID,0,VALID,25.8679,VALID,91,VALID,1.03984,
2010-01-19, 01:47:04,VALID,1001.03,VALID,0,VALID,84.7193,VALID,0,VALID,25.8483,VALID,80,VALID,0.736719,
2010-01-19, 01:48:04,VALID,1000.99,VALID,0,VALID,84.849,VALID,0,VALID,25.8288,VALID,95,VALID,0.746875,
2010-01-19, 01:49:04,VALID,1001,VALID,0,VALID,85.0169,VALID,0,VALID,25.7878,VALID,105,VALID,0.376172,
2010-01-19, 01:50:04,VALID,1000.98,VALID,0,VALID,85.1694,VALID,0,VALID,25.7702,VALID,93,VALID,0.725391,
2010-01-19, 01:51:04,VALID,1000.98,VALID,0,VALID,85.3678,VALID,0,VALID,25.7702,VALID,97,VALID,1.12188,
2010-01-19, 01:52:04,VALID,1000.96,VALID,0,VALID,85.4594,VALID,0,VALID,25.7507,VALID,96,VALID,0.905078,
2010-01-19, 01:53:04,VALID,1000.96,VALID,0,VALID,85.5662,VALID,0,VALID,25.7312,VALID,100,VALID,0.84375,
2010-01-19, 01:54:04,VALID,1000.96,VALID,0,VALID,85.6425,VALID,0,VALID,25.6921,VALID,90,VALID,0.792578,
2010-01-19, 01:55:04,VALID,1000.92,VALID,0,VALID,85.5128,VALID,0,VALID,25.6921,VALID,85,VALID,1.41797,
2010-01-19, 01:56:04,VALID,1000.92,VALID,0,VALID,85.5738,VALID,0,VALID,25.6726,VALID,81,VALID,1.11641,
2010-01-19, 01:57:04,VALID,1000.9,VALID,0,VALID,85.5891,VALID,0,VALID,25.6531,VALID,71,VALID,0.858203,
2010-01-19, 01:58:04,VALID,1000.9,VALID,0,VALID,85.673,VALID,0,VALID,25.6316,VALID,78,VALID,0.891016,
2010-01-19, 01:59:04,VALID,1000.93,VALID,0,VALID,85.7417,VALID,0,VALID,25.6336,VALID,70,VALID,0.635938,
2010-01-19, 02:00:04,VALID,1000.87,VALID,0,VALID,85.8714,VALID,0,VALID,25.573,VALID,70,VALID,0.427344,
2010-01-19, 02:01:04,VALID,1000.81,VALID,0,VALID,85.9477,VALID,0,VALID,25.5535,VALID,87,VALID,0.244922,
2010-01-19, 02:02:04,VALID,1000.87,VALID,0,VALID,86.1003,VALID,0,VALID,25.5555,VALID,87,VALID,0.254687,
2010-01-19, 02:03:04,VALID,1000.88,VALID,0,VALID,86.1613,VALID,0,VALID,25.5145,VALID,87,VALID,0.158984,
2010-01-19, 02:04:04,VALID,1000.84,VALID,0,VALID,86.0697,VALID,0,VALID,25.5359,VALID,87,VALID,0,
2010-01-19, 02:05:04,VALID,1000.86,VALID,0,VALID,86.146,VALID,0,VALID,25.4754,VALID,87,VALID,0,
2010-01-19, 02:06:04,VALID,1000.84,VALID,0,VALID,86.1384,VALID,0,VALID,25.4774,VALID,57,VALID,1.13945,
2010-01-19, 02:07:04,VALID,1000.83,VALID,0,VALID,85.7798,VALID,0,VALID,25.5164,VALID,63,VALID,0.601172,
2010-01-19, 02:08:04,VALID,1000.82,VALID,0,VALID,85.6883,VALID,0,VALID,25.5359,VALID,75,VALID,0.410547,
2010-01-19, 02:09:04,VALID,1000.84,VALID,0,VALID,85.7188,VALID,0,VALID,25.534,VALID,75,VALID,0.400781,
2010-01-19, 02:10:04,VALID,1000.85,VALID,0,VALID,85.6883,VALID,0,VALID,25.534,VALID,57,VALID,0.719531,
2010-01-19, 02:11:04,VALID,1000.83,VALID,0,VALID,85.6806,VALID,0,VALID,25.5555,VALID,54,VALID,0.351953,
2010-01-19, 02:12:04,VALID,1000.82,VALID,0,VALID,85.5051,VALID,0,VALID,25.5145,VALID,54,VALID,0,
2010-01-19, 02:13:04,VALID,1000.83,VALID,0,VALID,85.7493,VALID,0,VALID,25.5164,VALID,54,VALID,0,
2010-01-19, 02:14:04,VALID,1000.79,VALID,0,VALID,85.8637,VALID,0,VALID,25.5164,VALID,54,VALID,0,
2010-01-19, 02:15:04,VALID,1000.8,VALID,0,VALID,85.94,VALID,0,VALID,25.4969,VALID,56,VALID,0.152734,
2010-01-19, 02:16:04,VALID,1000.75,VALID,0,VALID,86.2986,VALID,0,VALID,25.4578,VALID,59,VALID,0.0121094,
2010-01-19, 02:17:04,VALID,1000.77,VALID,0,VALID,86.2605,VALID,0,VALID,25.4383,VALID,59,VALID,0,
2010-01-19, 02:18:04,VALID,1000.78,VALID,0,VALID,86.352,VALID,0,VALID,25.4188,VALID,59,VALID,0,
2010-01-19, 02:19:04,VALID,1000.77,VALID,0,VALID,86.3215,VALID,0,VALID,25.3993,VALID,58,VALID,0,
2010-01-19, 02:20:04,VALID,1000.77,VALID,0,VALID,86.7564,VALID,0,VALID,25.3193,VALID,58,VALID,0,
2010-01-19, 02:21:04,VALID,1000.78,VALID,0,VALID,86.9624,VALID,0,VALID,25.3407,VALID,58,VALID,0,
2010-01-19, 02:22:04,VALID,1000.75,VALID,0,VALID,86.7106,VALID,0,VALID,25.3017,VALID,50,VALID,0.00351562,
2010-01-19, 02:23:04,VALID,1000.76,VALID,0,VALID,87.2523,VALID,0,VALID,25.2412,VALID,50,VALID,0,
2010-01-19, 02:24:04,VALID,1000.77,VALID,0,VALID,87.4812,VALID,0,VALID,25.2431,VALID,50,VALID,0,
2010-01-19, 02:25:04,VALID,1000.78,VALID,0,VALID,87.6567,VALID,0,VALID,25.1845,VALID,50,VALID,0,
2010-01-19, 02:26:04,VALID,1000.8,VALID,0,VALID,87.8322,VALID,0,VALID,25.1241,VALID,50,VALID,0,
2010-01-19, 02:27:04,VALID,1000.79,VALID,0,VALID,87.8398,VALID,0,VALID,25.1455,VALID,50,VALID,0.176953,
2010-01-19, 02:28:04,VALID,1000.8,VALID,0,VALID,87.6643,VALID,0,VALID,25.126,VALID,50,VALID,0,
2010-01-19, 02:29:04,VALID,1000.78,VALID,0,VALID,87.7406,VALID,0,VALID,25.1241,VALID,78,VALID,0.646875,
2010-01-19, 02:30:04,VALID,1000.79,VALID,0,VALID,87.8398,VALID,0,VALID,25.1241,VALID,105,VALID,0.517969,
2010-01-19, 02:31:04,VALID,1000.82,VALID,0,VALID,87.5117,VALID,0,VALID,25.165,VALID,96,VALID,0,
2010-01-19, 02:32:04,VALID,1000.79,VALID,0,VALID,87.3744,VALID,0,VALID,25.165,VALID,96,VALID,0,
2010-01-19, 02:33:04,VALID,1000.83,VALID,0,VALID,87.6186,VALID,0,VALID,25.165,VALID,93,VALID,0,
2010-01-19, 02:34:04,VALID,1000.86,VALID,0,VALID,87.5117,VALID,0,VALID,25.1436,VALID,92,VALID,0,
2010-01-19, 02:35:04,VALID,1000.85,VALID,0,VALID,87.4126,VALID,0,VALID,25.1845,VALID,56,VALID,0,
2010-01-19, 02:36:04,VALID,1000.82,VALID,0,VALID,87.176,VALID,0,VALID,25.204,VALID,56,VALID,0,
2010-01-19, 02:37:04,VALID,1000.85,VALID,0,VALID,87.0845,VALID,0,VALID,25.1845,VALID,49,VALID,0,
2010-01-19, 02:38:04,VALID,1000.84,VALID,0,VALID,87.3897,VALID,0,VALID,25.1455,VALID,46,VALID,0,
2010-01-19, 02:39:04,VALID,1000.86,VALID,0,VALID,87.6643,VALID,0,VALID,25.1455,VALID,46,VALID,0,
2010-01-19, 02:40:04,VALID,1000.86,VALID,0,VALID,87.9314,VALID,0,VALID,25.126,VALID,46,VALID,0,
2010-01-19, 02:41:04,VALID,1000.85,VALID,0,VALID,88.1984,VALID,0,VALID,25.1436,VALID,63,VALID,1.08711,
2010-01-19, 02:42:04,VALID,1000.87,VALID,0,VALID,87.5194,VALID,0,VALID,25.2217,VALID,79,VALID,0.853125,
2010-01-19, 02:43:04,VALID,1000.87,VALID,0,VALID,87.2294,VALID,0,VALID,25.3212,VALID,33,VALID,1.11875,
2010-01-19, 02:44:04,VALID,1000.9,VALID,0,VALID,87.1913,VALID,0,VALID,25.3797,VALID,76,VALID,1.59648,
2010-01-19, 02:45:04,VALID,1000.9,VALID,0,VALID,86.7411,VALID,0,VALID,25.4578,VALID,93,VALID,0.998047,
2010-01-19, 02:46:04,VALID,1000.9,VALID,0,VALID,86.5962,VALID,0,VALID,25.4774,VALID,140,VALID,1.10469,
2010-01-19, 02:47:04,VALID,1000.88,VALID,0,VALID,86.5886,VALID,0,VALID,25.4774,VALID,101,VALID,1.13398,
2010-01-19, 02:48:04,VALID,1000.87,VALID,0,VALID,86.6649,VALID,0,VALID,25.4969,VALID,155,VALID,1.13555,
2010-01-19, 02:49:04,VALID,1000.89,VALID,0,VALID,86.5275,VALID,0,VALID,25.4969,VALID,61,VALID,1.01367,
2010-01-19, 02:50:04,VALID,1000.95,VALID,0,VALID,86.4512,VALID,0,VALID,25.5359,VALID,177,VALID,0.750391,
2010-01-19, 02:51:04,VALID,1000.93,VALID,0,VALID,86.3368,VALID,0,VALID,25.575,VALID,178,VALID,0.607422,
2010-01-19, 02:52:04,VALID,1000.97,VALID,0,VALID,86.2529,VALID,0,VALID,25.614,VALID,188,VALID,0.775,
2010-01-19, 02:53:04,VALID,1000.97,VALID,0,VALID,86.0621,VALID,0,VALID,25.6726,VALID,188,VALID,0.673828,
2010-01-19, 02:54:04,VALID,1000.98,VALID,0,VALID,85.9019,VALID,0,VALID,25.6921,VALID,188,VALID,0.321875,
2010-01-19, 02:55:04,VALID,1001.01,VALID,0,VALID,85.9019,VALID,0,VALID,25.6726,VALID,188,VALID,0.249219,
2010-01-19, 02:56:04,VALID,1001.02,VALID,0,VALID,85.9095,VALID,0,VALID,25.6511,VALID,188,VALID,0.433984,
2010-01-19, 02:57:04,VALID,1001.02,VALID,0,VALID,85.7874,VALID,0,VALID,25.6726,VALID,172,VALID,0.445313,
2010-01-19, 02:58:04,VALID,1001.01,VALID,0,VALID,85.9019,VALID,0,VALID,25.6531,VALID,190,VALID,0.637891,
2010-01-19, 02:59:04,VALID,1000.97,VALID,0,VALID,85.9324,VALID,0,VALID,25.6531,VALID,157,VALID,1.14883,
2010-01-19, 03:00:04,VALID,1000.95,VALID,0,VALID,85.7264,VALID,0,VALID,25.6921,VALID,156,VALID,0.810156,
2010-01-19, 03:01:04,VALID,1000.95,VALID,0,VALID,85.7035,VALID,0,VALID,25.6726,VALID,158,VALID,0.896875,
2010-01-19, 03:02:04,VALID,1000.92,VALID,0,VALID,85.7188,VALID,0,VALID,25.6726,VALID,158,VALID,0.703516,
2010-01-19, 03:03:04,VALID,1000.93,VALID,0,VALID,85.8714,VALID,0,VALID,25.6316,VALID,151,VALID,0.525391,
2010-01-19, 03:04:04,VALID,1000.94,VALID,0,VALID,85.8332,VALID,0,VALID,25.6121,VALID,151,VALID,0.183203,
2010-01-19, 03:05:04,VALID,1000.91,VALID,0,VALID,86.0087,VALID,0,VALID,25.6336,VALID,151,VALID,0,
2010-01-19, 03:06:04,VALID,1000.91,VALID,0,VALID,86.085,VALID,0,VALID,25.5945,VALID,151,VALID,0,
2010-01-19, 03:07:04,VALID,1000.88,VALID,0,VALID,86.2529,VALID,0,VALID,25.5555,VALID,133,VALID,0.671875,
2010-01-19, 03:08:04,VALID,1000.87,VALID,0,VALID,86.291,VALID,0,VALID,25.5359,VALID,125,VALID,0.860156,
2010-01-19, 03:09:04,VALID,1000.87,VALID,0,VALID,86.5123,VALID,0,VALID,25.4969,VALID,110,VALID,0.982422,
2010-01-19, 03:10:04,VALID,1000.89,VALID,0,VALID,86.4817,VALID,0,VALID,25.4578,VALID,106,VALID,1.34883,
2010-01-19, 03:11:04,VALID,1000.9,VALID,0,VALID,86.2147,VALID,0,VALID,25.4774,VALID,93,VALID,1.50195,
2010-01-19, 03:12:04,VALID,1000.94,VALID,0,VALID,85.7035,VALID,0,VALID,25.5359,VALID,78,VALID,2.21953,
2010-01-19, 03:13:04,VALID,1000.93,VALID,0,VALID,85.3373,VALID,0,VALID,25.6531,VALID,82,VALID,1.63789,
2010-01-19, 03:14:04,VALID,1000.95,VALID,0,VALID,84.7956,VALID,0,VALID,25.7116,VALID,86,VALID,0.649609,
2010-01-19, 03:15:04,VALID,1000.92,VALID,0,VALID,84.9711,VALID,0,VALID,25.7312,VALID,103,VALID,1.02969,
2010-01-19, 03:16:04,VALID,1000.97,VALID,0,VALID,84.7498,VALID,0,VALID,25.7507,VALID,88,VALID,1.38125,
2010-01-19, 03:17:04,VALID,1000.99,VALID,0,VALID,84.6277,VALID,0,VALID,25.7507,VALID,98,VALID,1.36172,
2010-01-19, 03:18:04,VALID,1001.03,VALID,0,VALID,84.5515,VALID,0,VALID,25.7507,VALID,99,VALID,1.18711,
2010-01-19, 03:19:04,VALID,1001.03,VALID,0,VALID,84.7346,VALID,0,VALID,25.7507,VALID,100,VALID,0.697656,
2010-01-19, 03:20:04,VALID,1001.04,VALID,0,VALID,84.8414,VALID,0,VALID,25.7312,VALID,98,VALID,1.10742,
2010-01-19, 03:21:04,VALID,1001.06,VALID,0,VALID,85.1694,VALID,0,VALID,25.6921,VALID,113,VALID,0.978516,
2010-01-19, 03:22:04,VALID,1001.1,VALID,0,VALID,85.0855,VALID,0,VALID,25.6531,VALID,112,VALID,1.08867,
2010-01-19, 03:23:04,VALID,1001.12,VALID,0,VALID,84.5591,VALID,0,VALID,25.6531,VALID,89,VALID,2.20859,
2010-01-19, 03:24:04,VALID,1001.13,VALID,0,VALID,84.4217,VALID,0,VALID,25.6921,VALID,92,VALID,1.48945,
2010-01-19, 03:25:04,VALID,1001.09,VALID,0,VALID,83.9411,VALID,0,VALID,25.7116,VALID,94,VALID,1.87188,
2010-01-19, 03:26:04,VALID,1001.08,VALID,0,VALID,83.6893,VALID,0,VALID,25.7312,VALID,97,VALID,1.30625,
2010-01-19, 03:27:04,VALID,1001.12,VALID,0,VALID,83.3307,VALID,0,VALID,25.8093,VALID,90,VALID,1.66914,
2010-01-19, 03:28:04,VALID,1001.13,VALID,0,VALID,83.3689,VALID,0,VALID,25.8288,VALID,102,VALID,0.895703,
2010-01-19, 03:29:04,VALID,1001.11,VALID,0,VALID,83.4986,VALID,0,VALID,25.8483,VALID,95,VALID,1.24648,
2010-01-19, 03:30:04,VALID,1001.14,VALID,0,VALID,83.552,VALID,0,VALID,25.8093,VALID,92,VALID,1.32383,
2010-01-19, 03:31:04,VALID,1001.11,VALID,0,VALID,83.9029,VALID,0,VALID,25.8093,VALID,96,VALID,0.969141,
2010-01-19, 03:32:04,VALID,1001.09,VALID,0,VALID,83.8495,VALID,0,VALID,25.7897,VALID,98,VALID,1.13125,
2010-01-19, 03:33:04,VALID,1001.11,VALID,0,VALID,84.0632,VALID,0,VALID,25.7507,VALID,104,VALID,1.15625,
2010-01-19, 03:34:04,VALID,1001.06,VALID,0,VALID,84.0632,VALID,0,VALID,25.7312,VALID,101,VALID,0.874609,
2010-01-19, 03:35:04,VALID,1001.08,VALID,0,VALID,83.8419,VALID,0,VALID,25.7312,VALID,80,VALID,1.425,
2010-01-19, 03:36:04,VALID,1001.08,VALID,0,VALID,84.025,VALID,0,VALID,25.7312,VALID,93,VALID,0.833984,
2010-01-19, 03:37:04,VALID,1001.09,VALID,0,VALID,83.6206,VALID,0,VALID,25.6921,VALID,97,VALID,1.41328,
2010-01-19, 03:38:04,VALID,1001.09,VALID,0,VALID,83.7656,VALID,0,VALID,25.6707,VALID,96,VALID,1.74258,
2010-01-19, 03:39:04,VALID,1001.14,VALID,0,VALID,83.8572,VALID,0,VALID,25.6921,VALID,73,VALID,1.43984,
2010-01-19, 03:40:04,VALID,1001.14,VALID,0,VALID,84.1089,VALID,0,VALID,25.6921,VALID,77,VALID,0.859375,
2010-01-19, 03:41:04,VALID,1001.18,VALID,0,VALID,84.2081,VALID,0,VALID,25.6531,VALID,80,VALID,1.07773,
2010-01-19, 03:42:04,VALID,1001.15,VALID,0,VALID,84.2386,VALID,0,VALID,25.6121,VALID,73,VALID,0.679297,
2010-01-19, 03:43:04,VALID,1001.15,VALID,0,VALID,84.3989,VALID,0,VALID,25.5945,VALID,73,VALID,0.492578,
2010-01-19, 03:44:04,VALID,1001.15,VALID,0,VALID,84.5896,VALID,0,VALID,25.575,VALID,73,VALID,0.126953,
2010-01-19, 03:45:04,VALID,1001.14,VALID,0,VALID,84.8032,VALID,0,VALID,25.5359,VALID,73,VALID,0,
2010-01-19, 03:46:04,VALID,1001.16,VALID,0,VALID,84.9787,VALID,0,VALID,25.4969,VALID,79,VALID,0.412891,
2010-01-19, 03:47:04,VALID,1001.17,VALID,0,VALID,85.0626,VALID,0,VALID,25.4969,VALID,169,VALID,0.732422,
2010-01-19, 03:48:04,VALID,1001.22,VALID,0,VALID,84.91,VALID,0,VALID,25.4969,VALID,168,VALID,0.698047,
2010-01-19, 03:49:04,VALID,1001.24,VALID,0,VALID,84.7803,VALID,0,VALID,25.4969,VALID,102,VALID,0.7,